Wind_Speed
45 40 39 40 40 40 39 32 35 36 41 49 53 58 62 62 63 61 61 63 64 65 67 70 72 73 74 74 77 80 82 83 81 81 82 86 89 92 94 96 95 94 94
38 39 40 40 42 40 42 38 39 43 47 52 57 61 65 66 63 62 66 66 68 71 74 77 80 81 80 83 84 86 88 90 92 94 94 93 95 101 103 106 106 103 103
37 39 41 42 43 42 43 46 47 49 53 56 59 64 68 67 67 68 70 74 77 81 83 84 84 85 86 89 91 93 97 101 104 105 107 108 108 109 111 115 115 114 114
41 43 41 39 39 42 46 48 51 54 56 60 64 66 66 68 71 73 77 79 84 87 91 93 94 95 97 99 102 105 110 112 114 117 120 122 122 122 110 112 116 120 121
46 46 45 46 46 46 47 49 53 56 61 65 66 66 68 72 75 78 84 89 94 97 100 102 104 106 109 110 115 118 122 124 125 126 125 127 127 122 117 108 112 114 116
44 46 49 52 52 51 52 53 53 56 60 62 65 68 69 74 77 82 88 93 96 101 104 107 110 113 117 121 124 127 127 128 128 127 125 122 118 116 110 101 96 98 103
32 37 43 46 48 50 54 55 56 58 61 65 68 69 72 76 81 86 91 96 101 105 108 112 116 122 127 129 130 127 123 124 124 124 122 120 119 116 107 102 94 89 91
35 38 43 44 46 50 53 56 58 63 67 69 72 74 77 82 89 95 101 104 106 110 114 118 123 129 131 128 126 126 126 124 121 120 120 118 113 105 99 93 89 82 80
41 43 48 51 52 55 56 58 62 66 69 73 76 79 84 89 96 100 104 109 113 117 121 125 129 126 124 123 122 120 119 117 117 114 108 103 98 94 91 87 83 80 77
46 49 51 53 55 56 58 61 63 66 70 74 79 85 88 94 100 107 112 117 121 124 127 125 120 118 119 117 115 114 114 110 105 101 97 93 90 85 82 79 76 74 71
46 48 49 52 54 56 59 61 64 70 74 77 82 89 94 100 106 113 117 122 126 127 122 122 119 120 118 115 114 108 104 100 95 91 88 86 83 81 77 73 69 65 63
45 46 49 52 55 56 58 63 68 72 76 82 88 95 101 107 112 116 122 126 126 123 122 121 123 123 117 113 108 103 97 91 87 83 80 78 75 73 70 67 64 60 56
49 50 51 53 55 59 62 67 71 76 82 89 96 101 108 112 118 124 128 127 128 124 122 121 124 118 111 105 100 94 89 83 78 75 72 69 66 65 64 61 59 58 54
55 53 54 58 60 63 68 74 80 85 92 97 103 108 115 120 129 132 130 126 121 119 115 111 109 104 98 94 89 84 81 76 72 69 66 62 59 58 58 58 57 55 53
58 59 60 61 64 69 75 82 89 94 99 104 112 117 122 127 130 128 124 121 117 114 104 100 95 89 86 83 80 77 74 72 70 67 63 59 57 55 54 53 52 50 48
58 58 60 64 70 75 82 88 94 100 106 110 115 121 126 130 127 124 121 115 107 102 97 91 86 82 78 76 74 73 71 69 67 64 61 58 55 52 49 47 45 46 44
59 62 66 71 76 82 88 94 98 103 109 116 123 128 131 129 121 118 115 107 100 96 92 86 82 77 75 72 70 69 68 66 62 58 55 54 51 47 45 43 41 43 42
63 66 72 78 85 91 95 99 105 111 118 123 129 132 132 127 124 118 110 102 94 87 82 78 76 74 70 68 66 63 62 60 57 54 52 51 51 47 44 42 40 40 40
68 75 81 87 92 97 101 105 112 118 125 129 132 133 129 124 121 111 102 95 90 83 77 74 71 69 66 63 61 59 56 54 52 49 46 45 44 41 39 39 37 35 36
77 83 89 95 100 105 110 114 118 123 128 130 132 129 124 120 110 100 93 88 82 77 74 71 68 65 62 59 56 54 53 52 48 46 43 41 40 39 36 34 33 31 30
86 92 97 102 106 110 114 119 123 127 127 129 129 129 124 113 100 93 87 82 77 74 70 66 63 60 57 54 52 51 50 50 47 44 41 38 36 33 31 29 27 27 25
93 99 104 107 111 117 121 125 125 126 127 128 129 125 116 103 96 89 82 77 73 70 66 63 60 57 56 53 51 48 46 45 43 41 37 35 32 30 28 27 25 24 22
100 104 107 112 119 124 126 124 126 125 128 128 122 114 104 96 90 84 77 73 70 66 63 60 58 57 54 51 48 44 43 43 41 39 36 32 29 27 25 23 21 21 21
106 109 112 120 123 124 123 125 127 130 128 122 115 104 96 90 84 78 73 70 66 63 60 58 57 54 51 49 48 46 42 38 37 35 32 29 27 24 22 20 19 19 19
110 115 120 125 126 126 125 128 129 125 120 112 102 96 90 84 79 74 70 65 63 60 57 55 53 51 48 47 46 45 43 41 37 33 30 27 24 22 20 19 19 18 17
116 120 125 127 125 126 128 124 122 118 110 101 94 89 84 79 74 70 66 63 60 58 56 53 49 47 46 45 43 41 39 36 35 32 28 25 23 20 20 19 18 18 18
Wind_Direction
268 268 268 270 272 276 277 262 261 261 264 274 282 284 288 291 293 296 298 298 296 294 295 294 293 290 288 287 286 286 285 285 285 284 286 287 288 287 285 284 283 283 279
274 274 276 275 277 280 281 273 265 270 278 281 283 287 289 292 293 295 297 296 296 295 294 293 293 292 290 290 289 289 289 289 289 289 289 289 287 289 289 286 282 281 281
280 281 275 274 281 282 281 280 280 282 283 286 286 287 292 294 296 297 296 298 299 300 299 299 298 296 294 293 292 292 293 293 293 292 291 290 290 289 289 287 284 281 278
279 275 274 279 281 281 282 283 284 283 283 283 286 293 296 297 296 296 297 299 300 300 301 302 300 298 297 296 297 296 296 296 295 294 293 291 290 288 283 281 279 277 274
291 292 289 290 289 286 285 286 286 288 289 292 296 297 297 298 298 299 300 300 303 305 306 305 304 302 300 299 299 300 300 299 298 297 294 292 290 286 282 278 276 274 272
285 286 288 289 291 293 292 291 292 293 294 296 296 297 297 297 298 299 300 301 301 301 301 300 300 301 302 301 301 302 300 298 296 294 290 287 286 286 285 284 280 277 274
281 283 285 288 292 294 295 298 300 299 298 296 295 294 294 294 295 296 297 298 299 299 300 301 301 301 301 301 302 301 298 296 294 291 291 290 289 289 288 285 280 276 274
284 283 286 290 293 293 296 296 296 296 296 296 294 293 293 296 298 300 301 301 301 302 301 300 300 300 302 302 301 300 299 295 292 290 289 289 289 288 286 283 280 276 272
294 292 292 289 289 290 292 292 292 294 295 295 295 297 298 300 302 302 301 300 300 299 301 302 302 304 303 301 299 296 295 294 293 292 291 290 289 287 285 283 281 278 273
295 295 294 293 294 294 295 294 294 294 295 297 299 301 301 301 301 301 300 300 300 301 304 307 305 303 301 299 298 298 297 297 295 294 293 291 289 288 286 283 281 278 273
297 296 294 293 293 294 295 296 298 299 300 301 299 299 301 301 299 299 301 303 306 307 308 309 307 305 302 303 303 301 299 298 297 296 294 293 291 289 287 285 281 277 272
297 297 299 299 300 300 301 301 301 300 300 300 300 299 298 300 302 304 307 308 310 312 311 311 310 306 306 305 303 301 299 299 298 296 294 292 291 290 288 286 283 278 272
306 302 302 302 301 302 302 302 302 300 298 297 299 300 302 304 307 309 312 313 314 314 313 312 308 306 306 304 302 301 301 301 299 297 295 293 291 290 288 286 283 280 276
312 308 304 303 303 304 304 304 303 303 304 304 304 305 306 310 312 312 314 314 314 313 310 308 305 305 304 303 303 302 302 302 300 298 297 296 294 290 288 286 283 280 276
309 309 307 306 306 306 306 307 307 307 307 307 308 310 310 311 313 315 316 316 314 311 307 305 305 306 305 306 305 304 303 303 301 301 299 297 294 291 288 286 284 280 276
308 307 307 307 308 308 307 307 308 308 310 309 307 308 311 314 317 318 317 314 311 310 310 310 310 309 309 306 306 305 305 304 304 303 301 298 294 293 291 288 284 281 276
310 310 309 309 308 308 308 309 310 309 308 308 310 314 315 318 320 319 316 313 314 313 313 313 311 311 310 309 308 307 306 305 303 302 301 298 296 293 291 288 282 277 273
311 309 308 308 309 312 312 311 311 310 310 312 314 316 319 322 321 319 317 316 315 314 313 312 312 311 310 310 308 307 305 304 304 303 301 299 296 296 292 286 280 275 272
311 310 310 311 312 312 313 311 311 312 312 315 316 318 321 322 320 319 317 317 316 315 315 314 313 313 311 310 309 307 305 304 303 302 300 298 296 295 292 288 283 277 272
312 313 313 313 314 313 313 313 313 315 314 316 317 320 321 321 320 318 318 317 317 316 317 316 314 313 312 311 310 311 310 307 307 308 305 301 298 296 291 286 281 276 273
314 315 315 313 314 314 314 314 315 314 316 318 319 321 320 320 319 319 319 318 318 317 316 315 314 314 315 314 313 313 311 311 310 309 307 303 300 296 291 286 282 279 274
314 314 314 315 315 316 315 316 315 317 318 319 320 320 320 320 320 320 320 319 318 318 317 317 317 316 316 316 316 315 315 313 313 311 308 305 301 298 293 290 285 279 272
314 315 315 316 317 317 316 317 318 318 318 319 319 320 320 321 320 320 320 320 319 319 319 318 318 318 319 319 318 319 318 316 315 313 311 307 302 299 294 290 284 277 269
314 315 316 317 317 318 317 317 318 318 318 318 319 320 320 321 321 320 321 320 320 321 321 319 320 322 322 322 321 320 319 318 316 315 314 309 303 298 294 288 281 276 271
315 316 316 318 318 318 317 317 317 317 317 317 319 320 321 321 320 321 321 320 320 321 320 321 322 322 323 323 322 322 323 321 321 319 315 311 304 297 291 285 279 275 271
316 316 316 318 318 317 317 317 317 316 317 318 320 320 321 321 321 322 321 321 321 321 321 323 323 322 323 322 322 321 321 320 321 318 314 311 304 297 291 284 276 271 264
Height
10684 10684 10680 10675 10671 10670 10666 10667 10661 10655 10648 10641 10636 10628 10622 10619 10614 10611 10606 10599 10593 10587 10580 10573 10566 10560 10555 10550 10544 10538 10531 10525 10525 10523 10519 10514 10507 10502 10497 10489 10486 10487 10486
10676 10672 10670 10665 10662 10661 10652 10653 10652 10647 10641 10634 10627 10617 10608 10605 10602 10598 10592 10584 10577 10571 10564 10557 10551 10545 10538 10529 10521 10513 10505 10498 10495 10490 10487 10490 10484 10475 10467 10460 10452 10453 10450
10666 10665 10663 10657 10651 10648 10644 10639 10637 10634 10628 10620 10612 10605 10599 10591 10584 10579 10571 10563 10555 10548 10539 10533 10528 10522 10513 10504 10497 10489 10480 10472 10464 10457 10449 10446 10448 10450 10444 10428 10420 10413 10412
10654 10650 10649 10646 10641 10635 10630 10627 10624 10618 10613 10607 10601 10594 10586 10576 10568 10559 10551 10543 10535 10527 10518 10510 10501 10493 10482 10474 10466 10457 10446 10436 10429 10420 10412 10402 10394 10396 10406 10397 10386 10373 10362
10639 10636 10633 10629 10626 10623 10621 10619 10612 10606 10599 10592 10585 10578 10571 10561 10550 10540 10528 10517 10507 10495 10484 10474 10464 10455 10445 10437 10428 10417 10406 10396 10385 10377 10368 10357 10346 10337 10335 10349 10341 10333 10323
10632 10626 10621 10616 10613 10610 10607 10605 10603 10596 10587 10579 10572 10565 10556 10544 10534 10523 10511 10499 10489 10478 10466 10455 10443 10431 10417 10404 10393 10382 10369 10358 10345 10331 10319 10308 10301 10294 10288 10290 10298 10291 10282
10627 10619 10613 10609 10605 10601 10595 10591 10586 10579 10573 10565 10558 10551 10543 10531 10520 10509 10499 10487 10473 10460 10445 10430 10415 10400 10387 10374 10361 10347 10333 10318 10303 10288 10273 10263 10254 10250 10249 10247 10251 10252 10245
10621 10615 10608 10604 10599 10593 10587 10579 10573 10565 10556 10548 10538 10530 10521 10511 10497 10485 10472 10459 10446 10433 10420 10407 10391 10374 10360 10343 10327 10309 10293 10276 10262 10249 10237 10226 10217 10212 10206 10204 10204 10211 10214
10608 10604 10601 10596 10591 10585 10579 10571 10562 10551 10541 10530 10522 10512 10502 10490 10475 10459 10445 10430 10419 10409 10396 10381 10363 10345 10326 10308 10291 10273 10256 10241 10225 10212 10201 10192 10184 10178 10172 10169 10169 10168 10176
10600 10595 10588 10582 10575 10569 10562 10554 10546 10536 10525 10516 10506 10493 10483 10471 10455 10438 10422 10407 10391 10377 10361 10344 10326 10307 10287 10268 10253 10237 10219 10203 10188 10177 10168 10157 10149 10145 10141 10138 10137 10136 10139
10588 10583 10576 10569 10563 10556 10548 10539 10531 10520 10510 10500 10488 10475 10463 10448 10431 10414 10397 10379 10360 10341 10323 10302 10281 10260 10241 10225 10213 10199 10182 10168 10158 10147 10136 10126 10119 10113 10110 10108 10108 10107 10107
10577 10570 10563 10555 10547 10540 10532 10524 10514 10503 10492 10480 10468 10454 10441 10424 10407 10388 10367 10347 10326 10304 10282 10261 10239 10216 10204 10193 10177 10162 10150 10140 10130 10120 10111 10102 10094 10088 10084 10081 10078 10078 10080
10562 10556 10549 10541 10533 10524 10517 10507 10497 10486 10475 10463 10447 10430 10412 10394 10377 10357 10334 10310 10289 10270 10250 10230 10206 10184 10172 10160 10144 10131 10120 10112 10104 10094 10086 10079 10073 10066 10060 10057 10054 10052 10054
10546 10540 10533 10525 10516 10508 10500 10490 10479 10467 10453 10437 10420 10403 10384 10367 10344 10323 10305 10285 10261 10240 10220 10202 10180 10164 10149 10132 10118 10106 10095 10087 10079 10071 10064 10059 10053 10048 10042 10035 10032 10031 10031
10532 10525 10517 10509 10501 10492 10481 10468 10454 10440 10425 10408 10389 10370 10353 10339 10318 10296 10272 10251 10231 10210 10193 10173 10156 10140 10123 10108 10094 10083 10073 10064 10055 10048 10043 10037 10031 10027 10022 10018 10013 10012 10012
10521 10513 10504 10495 10485 10474 10462 10448 10433 10418 10400 10382 10367 10352 10333 10308 10287 10265 10241 10218 10197 10175 10160 10143 10128 10112 10100 10087 10074 10061 10051 10042 10036 10027 10020 10014 10010 10006 10003 10000 9996 9992 9992
10506 10498 10488 10477 10467 10456 10444 10429 10413 10397 10378 10357 10338 10317 10295 10273 10251 10230 10206 10184 10166 10148 10131 10116 10102 10090 10078 10066 10055 10044 10032 10024 10017 10010 10003 9995 9991 9989 9986 9983 9980 9977 9976
10492 10483 10474 10462 10450 10436 10423 10408 10390 10372 10350 10329 10309 10285 10260 10238 10216 10194 10174 10156 10140 10127 10113 10098 10084 10071 10060 10048 10039 10029 10018 10009 10001 9995 9988 9980 9973 9971 9969 9965 9963 9963 9962
10478 10468 10457 10443 10430 10417 10402 10386 10367 10343 10319 10300 10279 10257 10236 10215 10196 10172 10152 10134 10117 10103 10091 10079 10066 10054 10043 10033 10023 10013 10004 9995 9988 9981 9975 9968 9961 9957 9954 9950 9949 9949 9948
10460 10448 10435 10421 10408 10393 10377 10359 10342 10319 10293 10273 10251 10229 10210 10191 10170 10151 10132 10115 10099 10084 10072 10060 10049 10039 10028 10018 10008 9998 9987 9978 9973 9966 9961 9955 9949 9945 9941 9939 9937 9936 9937
10440 10428 10415 10402 10386 10370 10354 10334 10314 10292 10269 10245 10222 10201 10180 10164 10147 10129 10112 10096 10082 10068 10057 10046 10035 10023 10013 10004 9994 9985 9974 9965 9958 9953 9947 9943 9937 9933 9930 9928 9927 9927 9927
10424 10410 10395 10379 10362 10345 10326 10307 10286 10264 10240 10218 10197 10176 10156 10139 10122 10107 10092 10079 10065 10052 10041 10030 10019 10008 9998 9989 9980 9972 9963 9955 9948 9941 9936 9932 9927 9924 9921 9920 9919 9918 9918
10405 10389 10374 10357 10337 10317 10295 10277 10255 10236 10215 10192 10173 10155 10136 10119 10104 10089 10075 10062 10049 10038 10027 10016 10005 9995 9985 9976 9968 9961 9954 9945 9938 9931 9926 9922 9918 9915 9913 9912 9911 9910 9910
10382 10366 10350 10333 10314 10292 10271 10250 10230 10210 10188 10168 10150 10131 10116 10100 10086 10073 10059 10046 10034 10023 10013 10003 9992 9982 9973 9964 9955 9949 9943 9938 9930 9923 9917 9913 9910 9908 9906 9905 9904 9904 9904
10358 10342 10324 10307 10288 10268 10248 10229 10207 10184 10165 10146 10130 10112 10098 10083 10069 10056 10045 10033 10022 10011 10002 9992 9981 9970 9963 9955 9947 9939 9932 9924 9920 9914 9910 9906 9903 9901 9900 9899 9898 9898 9899
10335 10316 10296 10280 10263 10242 10223 10204 10184 10162 10142 10126 10111 10095 10081 10067 10054 10042 10031 10019 10009 10000 9990 9980 9971 9963 9955 9947 9939 9932 9926 9919 9912 9907 9902 9899 9896 9895 9893 9893 9892 9892 9893